DW6558 Weather Reports


Display with metric or nautical units.
time (UTC)temp
F
wind
direction
speed
MPH
gust
MPH
rain 1hr
in
rain 24hr
in
rain mn
in
humidity
%
barometer
mb
20260502170453 62 75 0.0 2.0 0.00 0.00 0.00 21 935.5
20260502163931 59 211 0.0 3.0 0.00 0.00 0.00 27 935.7
20260502163427 59 92 0.0 2.0 0.00 0.00 0.00 26 935.7
20260502162926 58 309 5.0 6.0 0.00 0.00 0.00 26 935.5
20260502162422 57 177 1.0 3.0 0.00 0.00 0.00 26 935.5
20260502161919 57 330 0.0 2.0 0.00 0.00 0.00 27 935.6
20260502161415 56 299 0.0 6.0 0.00 0.00 0.00 28 935.6
20260502160913 56 355 0.0 5.0 0.00 0.00 0.00 27 935.7
20260502160411 55 356 0.0 3.0 0.00 0.00 0.00 29 935.8
20260502151849 52 51 0.0 0.0 0.00 0.00 0.00 36 936.0
20260502151345 51 71 0.0 0.0 0.00 0.00 0.00 37 936.0
20260502150843 50 127 0.0 0.0 0.00 0.00 0.00 39 935.9
20260502150339 50 80 0.0 0.0 0.00 0.00 0.00 39 936.1
20260502130727 31 123 3.0 6.0 0.00 0.00 0.00 68 935.8
20260502130225 30 107 3.0 6.0 0.00 0.00 0.00 68 935.7
20260502123711 29 120 3.0 5.0 0.00 0.00 0.00 70 935.5
20260502123208 29 127 3.0 7.0 0.00 0.00 0.00 70 935.5
20260502122704 29 124 4.0 6.0 0.00 0.00 0.00 70 935.5
20260502122200 29 110 3.0 5.0 0.00 0.00 0.00 70 935.5
20260502121659 29 135 3.0 7.0 0.00 0.00 0.00 70 935.2
20260502121156 29 128 5.0 7.0 0.00 0.00 0.00 70 935.6
20260502120653 29 141 5.0 5.0 0.00 0.00 0.00 71 935.5
20260502120150 28 118 3.0 3.0 0.00 0.00 0.00 72 935.3
20260502115647 28 110 2.0 3.0 0.00 0.00 0.00 72 935.2
20260502115143 28 112 2.0 5.0 0.00 0.00 0.00 72 935.5
20260502114640 28 123 5.0 6.0 0.00 0.00 0.00 72 935.3
20260502114137 28 114 3.0 6.0 0.00 0.00 0.00 71 935.5
20260502113634 29 119 4.0 5.0 0.00 0.00 0.00 70 935.5
20260502113132 29 98 2.0 3.0 0.00 0.00 0.00 70 935.2
20260502112630 29 124 3.0 5.0 0.00 0.00 0.00 70 935.6
20260502112127 29 133 4.0 7.0 0.00 0.00 0.00 70 935.2
20260502111624 29 120 3.0 3.0 0.00 0.00 0.00 69 935.3
20260502111122 29 119 3.0 3.0 0.00 0.00 0.00 69 935.3
20260502110619 30 120 3.0 5.0 0.00 0.00 0.00 68 935.6
20260502110117 29 115 2.0 5.0 0.00 0.00 0.00 69 935.7
20260502105614 30 124 4.0 5.0 0.00 0.00 0.00 68 935.5
20260502105111 30 120 3.0 5.0 0.00 0.00 0.00 68 935.6
20260502104608 30 147 4.0 9.0 0.00 0.00 0.00 68 935.2
20260502104105 30 127 5.0 7.0 0.00 0.00 0.00 68 935.5
20260502103603 29 127 5.0 6.0 0.00 0.00 0.00 68 935.3
20260502103101 30 105 3.0 5.0 0.00 0.00 0.00 68 935.0
20260502102557 30 118 3.0 6.0 0.00 0.00 0.00 68 935.3
20260502102054 30 119 3.0 5.0 0.00 0.00 0.00 67 935.2
20260502101552 30 128 4.0 6.0 0.00 0.00 0.00 67 935.1
20260502101050 30 126 5.0 7.0 0.00 0.00 0.00 67 935.2
20260502100548 30 126 6.0 7.0 0.00 0.00 0.00 67 935.0
20260502091523 31 141 5.0 7.0 0.00 0.00 0.00 65 935.0
20260502091020 31 128 5.0 6.0 0.00 0.00 0.00 65 935.2
20260502090517 31 107 2.0 3.0 0.00 0.00 0.00 64 935.2
20260502071412 34 128 3.0 5.0 0.00 0.00 0.00 61 935.3
20260502070910 34 140 3.0 6.0 0.00 0.00 0.00 61 935.3
20260502070407 35 127 3.0 6.0 0.00 0.00 0.00 61 935.2
20260502065906 35 133 0.0 0.0 0.00 0.00 0.00 59 935.2
20260502065404 36 126 0.0 0.0 0.00 0.00 0.00 56 934.8
20260502064902 37 115 0.0 0.0 0.00 0.00 0.00 54 935.0
20260502064359 35 104 0.0 0.0 0.00 0.00 0.00 56 935.0
20260502063856 35 103 0.0 1.0 0.00 0.00 0.00 57 934.8
20260502063354 37 71 0.0 0.0 0.00 0.00 0.00 56 935.1
20260502062851 38 119 0.0 0.0 0.00 0.00 0.00 51 934.8
20260502062348 37 138 0.0 7.0 0.00 0.00 0.00 52 934.8
20260502061847 36 122 0.0 1.0 0.00 0.00 0.00 57 934.9
20260502061345 37 107 0.0 0.0 0.00 0.00 0.00 53 934.7
20260502060840 37 137 0.0 6.0 0.00 0.00 0.00 51 934.9
20260502060335 38 128 4.0 6.0 0.00 0.00 0.00 49 934.9
20260502055833 38 129 3.0 7.0 0.00 0.00 0.00 48 934.9
20260502055331 38 118 5.0 7.0 0.00 0.00 0.00 46 935.0
20260502054831 37 107 3.0 7.0 0.00 0.00 0.00 47 934.8
20260502054328 37 65 0.0 0.0 0.00 0.00 0.00 51 934.7
20260502053825 38 103 0.0 1.0 0.00 0.00 0.00 51 934.5
20260502053322 38 130 3.0 7.0 0.00 0.00 0.00 51 934.4
20260502052820 38 110 2.0 5.0 0.00 0.00 0.00 50 934.8
20260502052318 38 127 4.0 6.0 0.00 0.00 0.00 50 934.5
20260502051815 39 142 3.0 7.0 0.00 0.00 0.00 50 934.7
20260502051314 39 122 4.0 8.0 0.00 0.00 0.00 49 934.5
20260502050809 39 136 6.0 7.0 0.00 0.00 0.00 49 934.5
20260502050306 40 132 5.0 8.0 0.00 0.00 0.00 47 934.3
20260502045803 39 131 7.0 9.0 0.00 0.00 0.00 48 934.9
20260502045300 40 133 6.0 9.0 0.00 0.00 0.00 48 934.7
20260502044757 40 130 6.0 8.0 0.00 0.00 0.00 47 934.4
20260502044253 40 131 6.0 7.0 0.00 0.00 0.00 46 934.4
20260502043750 41 141 4.0 8.0 0.00 0.00 0.00 45 934.5
20260502043248 41 112 6.0 8.0 0.00 0.00 0.00 44 934.4
20260502042747 41 133 4.0 8.0 0.00 0.00 0.00 43 934.8
20260502042245 41 130 0.0 3.0 0.00 0.00 0.00 42 934.4
20260502041742 40 65 0.0 0.0 0.00 0.00 0.00 46 934.4
20260502041240 40 57 0.0 0.0 0.00 0.00 0.00 45 934.7
20260502040736 41 62 0.0 0.0 0.00 0.00 0.00 44 934.5
20260502040233 40 64 0.0 0.0 0.00 0.00 0.00 44 934.3
20260502035729 41 70 0.0 0.0 0.00 0.00 0.00 43 934.2
20260502035226 41 52 0.0 0.0 0.00 0.00 0.00 44 934.2
20260502034723 42 53 0.0 0.0 0.00 0.00 0.00 42 934.0
20260502034222 41 55 0.0 0.0 0.00 0.00 0.00 44 934.1
20260502033719 41 47 0.0 0.0 0.00 0.00 0.00 44 933.9
20260502033217 44 33 0.0 0.0 0.00 0.00 0.00 44 933.9
20260502032713 46 102 0.0 0.0 0.00 0.00 0.00 35 933.5
20260502032209 46 93 0.0 0.0 0.00 0.00 0.00 36 933.6
20260502031708 47 102 0.0 0.0 0.00 0.00 0.00 33 933.5
20260502031205 48 126 0.0 0.0 0.00 0.00 0.00 33 933.6
20260502030704 48 118 0.0 1.0 0.00 0.00 0.00 34 933.4
20260502030201 48 119 1.0 6.0 0.00 0.00 0.00 33 933.5
20260502025658 48 137 6.0 7.0 0.00 0.00 0.00 33 933.4
20260502025156 50 141 2.0 5.0 0.00 0.00 0.00 32 933.4
20260502024654 50 115 4.0 6.0 0.00 0.00 0.00 30 933.3
20260502024152 51 131 1.0 3.0 0.00 0.00 0.00 28 933.6
20260502023649 52 133 3.0 5.0 0.00 0.00 0.00 27 933.3
20260502023146 53 128 0.0 0.0 0.00 0.00 0.00 25 933.4
20260502022643 53 107 0.0 5.0 0.00 0.00 0.00 25 933.1
20260502022140 54 91 5.0 7.0 0.00 0.00 0.00 24 933.2
20260502021638 54 103 7.0 7.0 0.00 0.00 0.00 24 933.3
20260502021135 55 108 6.0 7.0 0.00 0.00 0.00 23 933.2
20260502020632 55 111 6.0 10.0 0.00 0.00 0.00 23 933.2
20260502020129 56 110 7.0 9.0 0.00 0.00 0.00 23 933.2
20260502015627 55 104 5.0 8.0 0.00 0.00 0.00 23 933.5
20260502015123 56 109 7.0 8.0 0.00 0.00 0.00 23 933.7
20260502014620 57 100 6.0 9.0 0.00 0.00 0.00 22 933.4
20260502014117 57 106 7.0 8.0 0.00 0.00 0.00 20 933.3
20260502013613 57 102 5.0 9.0 0.00 0.00 0.00 21 933.6
20260502013109 57 96 10.0 10.0 0.00 0.00 0.00 21 933.4
20260502012607 57 81 7.0 8.0 0.00 0.00 0.00 22 933.4
20260502012105 58 78 7.0 7.0 0.00 0.00 0.00 22 933.3
20260502011601 57 80 3.0 7.0 0.00 0.00 0.00 22 933.5
20260502011057 58 79 9.0 14.0 0.00 0.00 0.00 21 933.6
20260502010554 58 102 9.0 10.0 0.00 0.00 0.00 22 933.6
20260502010050 58 93 7.0 10.0 0.00 0.00 0.00 22 933.4
20260502005548 58 113 8.0 11.0 0.00 0.00 0.00 21 933.7
20260502005046 58 129 7.0 11.0 0.00 0.00 0.00 20 933.9
20260502004541 58 131 7.0 9.0 0.00 0.00 0.00 20 933.6
20260502004038 59 79 0.0 3.0 0.00 0.00 0.00 21 933.6
20260502003537 59 52 3.0 8.0 0.00 0.00 0.00 21 933.6
20260502003033 59 110 4.0 7.0 0.00 0.00 0.00 21 933.7
20260502002529 59 101 10.0 11.0 0.00 0.00 0.00 21 933.5
20260502002027 58 103 7.0 13.0 0.00 0.00 0.00 20 933.5
20260502001524 58 99 5.0 9.0 0.00 0.00 0.00 20 933.6
20260502001021 58 100 7.0 15.0 0.00 0.00 0.00 20 933.5
20260502000520 59 117 8.0 10.0 0.00 0.00 0.00 20 933.5
20260502000016 59 81 5.0 8.0 0.00 0.00 0.00 20 933.4
20260501235512 59 75 6.0 11.0 0.00 0.00 0.00 20 933.4
20260501235008 58 137 6.0 9.0 0.00 0.00 0.00 20 933.5
20260501234504 59 109 8.0 10.0 0.00 0.00 0.00 21 933.4
20260501234003 59 49 7.0 11.0 0.00 0.00 0.00 22 933.6
20260501233500 59 62 2.0 5.0 0.00 0.00 0.00 19 933.5
20260501232955 59 135 8.0 15.0 0.00 0.00 0.00 19 933.5
20260501232453 59 61 8.0 11.0 0.00 0.00 0.00 21 933.5
20260501231950 59 133 8.0 14.0 0.00 0.00 0.00 21 933.5
20260501231448 59 112 4.0 6.0 0.00 0.00 0.00 22 933.6
20260501230946 59 116 9.0 13.0 0.00 0.00 0.00 22 933.9
20260501230445 59 94 2.0 5.0 0.00 0.00 0.00 22 933.6
20260501225942 59 103 5.0 14.0 0.00 0.00 0.00 22 933.4
20260501225440 58 72 2.0 11.0 0.00 0.00 0.00 21 933.3
20260501224935 58 128 6.0 8.0 0.00 0.00 0.00 21 933.5
20260501224433 58 105 9.0 15.0 0.00 0.00 0.00 20 933.4
20260501223930 58 51 2.0 10.0 0.00 0.00 0.00 22 933.3
20260501223426 58 47 6.0 13.0 0.00 0.00 0.00 20 933.6
20260501222921 58 81 5.0 9.0 0.00 0.00 0.00 22 933.6
20260501222419 58 8 5.0 9.0 0.00 0.00 0.00 20 933.5
20260501221915 57 84 4.0 10.0 0.00 0.00 0.00 21 933.6
20260501221413 58 86 9.0 11.0 0.00 0.00 0.00 20 933.7
20260501220911 58 62 0.0 8.0 0.00 0.00 0.00 21 933.6
20260501220408 58 68 3.0 10.0 0.00 0.00 0.00 21 934.0
20260501215904 58 82 9.0 14.0 0.00 0.00 0.00 24 933.7
20260501215400 59 39 1.0 6.0 0.00 0.00 0.00 19 933.9
20260501214856 58 355 3.0 8.0 0.00 0.00 0.00 20 934.1
20260501214351 59 25 5.0 8.0 0.00 0.00 0.00 21 934.0
20260501213847 57 65 1.0 13.0 0.00 0.00 0.00 22 934.0
20260501213344 57 59 9.0 13.0 0.00 0.00 0.00 23 934.3
20260501212839 58 50 5.0 18.0 0.00 0.00 0.00 24 934.1
20260501212337 57 19 3.0 9.0 0.00 0.00 0.00 23 934.0
20260501211834 57 116 7.0 8.0 0.00 0.00 0.00 24 934.1
20260501211332 57 64 7.0 18.0 0.00 0.00 0.00 21 934.1
20260501210829 57 104 10.0 15.0 0.00 0.00 0.00 27 934.2
20260501210326 57 132 5.0 14.0 0.00 0.00 0.00 24 934.1
20260501205822 57 50 3.0 10.0 0.00 0.00 0.00 25 934.0
20260501205319 56 26 7.0 9.0 0.00 0.00 0.00 27 934.3
20260501204815 57 64 5.0 7.0 0.00 0.00 0.00 26 934.2
20260501204312 56 25 5.0 9.0 0.00 0.00 0.00 26 934.3
20260501203808 57 112 12.0 13.0 0.00 0.00 0.00 27 934.2
20260501203306 56 105 7.0 13.0 0.00 0.00 0.00 26 934.2
20260501202802 56 93 11.0 15.0 0.00 0.00 0.00 26 934.0
20260501202259 56 142 0.0 5.0 0.00 0.00 0.00 26 934.2
20260501201756 54 73 8.0 11.0 0.00 0.00 0.00 24 934.0
20260501201253 56 43 10.0 11.0 0.00 0.00 0.00 24 933.9
20260501200749 55 34 5.0 10.0 0.00 0.00 0.00 24 934.1
20260501200247 55 93 2.0 7.0 0.00 0.00 0.00 25 934.1
20260501195744 55 109 10.0 14.0 0.00 0.00 0.00 28 934.3
20260501195240 55 89 7.0 7.0 0.00 0.00 0.00 22 934.2
20260501194736 55 120 8.0 9.0 0.00 0.00 0.00 22 934.4
20260501194232 54 47 8.0 17.0 0.00 0.00 0.00 24 934.4
20260501193728 54 88 8.0 14.0 0.00 0.00 0.00 27 934.5
20260501193227 55 50 3.0 9.0 0.00 0.00 0.00 25 934.5
20260501192724 54 78 7.0 11.0 0.00 0.00 0.00 22 934.5
20260501192221 53 44 15.0 20.0 0.00 0.00 0.00 26 934.5
20260501191718 54 44 8.0 13.0 0.00 0.00 0.00 26 934.5
20260501191216 54 42 3.0 10.0 0.00 0.00 0.00 25 934.8
20260501190712 53 117 4.0 9.0 0.00 0.00 0.00 27 934.8
20260501190208 54 85 6.0 11.0 0.00 0.00 0.00 29 934.8
20260501185704 53 67 3.0 9.0 0.00 0.00 0.00 29 934.8
20260501185200 53 87 0.0 6.0 0.00 0.00 0.00 25 935.0
20260501184656 52 98 3.0 10.0 0.00 0.00 0.00 27 934.9
20260501184156 53 121 7.0 13.0 0.00 0.00 0.00 30 934.9
20260501183653 53 85 10.0 11.0 0.00 0.00 0.00 28 934.8
20260501183149 52 119 7.0 15.0 0.00 0.00 0.00 28 934.9
20260501182646 52 118 5.0 7.0 0.00 0.00 0.00 32 934.7
20260501182143 52 143 10.0 16.0 0.00 0.00 0.00 29 934.9
20260501181640 51 115 8.0 16.0 0.00 0.00 0.00 30 934.9
20260501181136 51 70 5.0 10.0 0.00 0.00 0.00 32 935.0
20260501180635 52 110 10.0 15.0 0.00 0.00 0.00 30 935.0
20260501180131 51 109 8.0 11.0 0.00 0.00 0.00 31 935.2
20260501175628 51 91 6.0 14.0 0.00 0.00 0.00 29 935.0
20260501175125 51 52 3.0 11.0 0.00 0.00 0.00 29 934.9
20260501174621 51 57 6.0 9.0 0.00 0.00 0.00 30 935.2
20260501174119 50 130 7.0 10.0 0.00 0.00 0.00 34 935.1
20260501173616 50 82 8.0 15.0 0.00 0.00 0.00 34 935.1
20260501173113 50 92 4.0 13.0 0.00 0.00 0.00 35 935.1
20260501172609 50 110 4.0 13.0 0.00 0.00 0.00 37 935.1
20260501172104 50 75 1.0 3.0 0.00 0.00 0.00 36 935.2
20260501171600 50 89 5.0 7.0 0.00 0.00 0.00 35 935.2
20260501171057 49 68 5.0 9.0 0.00 0.00 0.00 36 935.1